STARLINK-5593, 55763

Orbit data source: Space-Track

STARLINK-5593, 55763 is a payload satellite owned by SpaceX/Seattle (US) in LEO that was launched on Fri, 03 Mar 2023 UTC via an FALCON 9 launch vehicle from the Air Force Western Test Range (AFWTR). Payload-class satellites include a variety of spacecraft equipped with specific instruments for various scientific and technological missions. These include communications satellites like Starlink; space stations such as the ISS; scientific satellites like the Hubble; Earth observation satellites from companies like Planet Labs, Umbra, and HawkEye 360; GPS; miniature CubeSats for education and research; and military/defense satellites.

Loading next visibility...
Identifier
55763, 2023-028Y
Orbit
LEO
Country
Flag of USUS
Related business
Manufacturer
SpaceX/Seattle
Mission
Operational Commercial Communications
Bus & Motor
STARLINK, Unknown motor
Mass
305 kg wet, ~290 kg dry
Launch date (UTC)
2023-03-03 (3 years ago)
Launch vehicle
FALCON 9
Launch site
Air Force Western Test Range (AFWTR)
Object type
Payload
Rocket body
Debris
Shape & HBR
Box + 1 Pan, 10.1 m
Radar Cross Section
11.087 m², Large (>1 m²)

Expand to show TLE details & history
Last TLE update: 3 days ago

TLE from 3 days ago
0 STARLINK-5593
1 55763U 23028Y   26170.89576165 -.00000040  00000-0  44387-5 0  9990
2 55763  69.9996 346.5981 0003124 266.8778  93.2023 14.98330476181358
Epoch: 2026-06-19T21:29Z
TLE epoch observation values (Epoch: 2026-06-19T21:29:53.806Z)
Latitude
-0.00009°
Longitude
116.00571°
Altitude
574.6 km
Speed
7.574 km/s
True Right ascension
23h 06m 23s
True Declination
0° 00' 00"
Sunlit
Object was in daylight at epoch
Visualization orbit readout
Latitude
Unknown
Longitude
Unknown
Altitude
Unknown
Speed
Unknown
Apparent Right ascension
Unknown
Apparent Declination
Unknown
Sunlit
N/A
Visualization observer readout
Local Sidereal Time
21:33:06
Azimuth
Unknown
Elevation
Unknown
Doppler factor
Unknown
Orbital elements
Apogee altitude
572.173 km
Perigee altitude
567.832 km
Semi-major axis
6,948.14 km
Eccentricity
0.00031
Inclination
69.9996°
RAAN
346.5981°
Arg. of periapsis
266.8778°
True anomaly
93.23804°
Mean anomaly
93.2023°
Eccentric anomaly
93.22017°
Mean motion
3.74749 °/min
Orbital period
96.06 mins
BSTAR
0.0000044387
Loading maneuver chart data...
Computing Atmospheric mass density...
Loading historical data...
Loading historical data...
Loading historical data...
Loading historical data...
Loading historical data...
Loading historical data...
Loading historical data...

Documentation

Showing up to 5 results
|